Weather in Lebedki

Russia / Smolensk Oblast     55˚53′16″N   34˚44′49″E
temp.,
°C
wind,
m/s
gust,
m/s
humid.,
%
clouds,
%
prec.,
mm/h
press.,
hPa
HPBL,
m
16 january, sat
sat1600:00−22˚ne369797 0.1 1013225
03:00−22˚ne369798 0.2 1013249
06:00−21˚n3697100 0.2 1011225
09:00−21˚n3696100 0.3 1012235
12:00−18˚nnw3795100 0.1 1011262
15:00−16˚nnw4895100 0.6 1010348
18:00−16˚nnw4995100 1.3 1010472
21:00−17˚nnw4894100 1.7 1011473
17 january, sun
sun1700:00−18˚nnw3895100 0.1 1012391
03:00−20˚nnw3997100 0.1 1013288
06:00−22˚n379782 0.0 1014182
09:00−24˚n379860 0.0 1016141
12:00−21˚nne259548 0.0 1017237
15:00−19˚n239441 0.0 1018204
18:00−23˚n12980 0.0 101820
21:00−23˚n11970 0.0 101920
18 january, mon
mon1800:00−23˚nw11960 0.0 101920
03:00−24˚w11940 0.0 101920
06:00−23˚sw22930 0.0 101820
09:00−23˚sw22940 0.0 101923
12:00−17˚sw129541 0.0 1019101
15:00−16˚ssw239659 0.0 1018135
18:00−19˚sw129982 0.0 101820
21:00−19˚sw129983 0.1 101820
19 january, tue
tue1900:00−17˚ssw229896 0.1 101835
03:00−16˚sw129791 0.2 101721
06:00−17˚wsw129896 0.0 101720
09:00−16˚wsw129895 0.1 101820
12:00−13˚w119490 0.1 1018124
15:00−12˚w129691 0.1 1017125
18:00−16˚w129771 0.0 101820
21:00−16˚wsw129854 0.0 101920
20 january, wed
wed2000:00−16˚sw229835 0.0 101920
03:00−17˚sw229848 0.0 102023
06:00−17˚ssw239850 0.0 102042
09:00−18˚ssw239856 0.0 102062
12:00−14˚ssw379466 0.0 1020220
15:00−12˚s499377 0.0 1018275
18:00−13˚s51193100 0.0 1018279
21:00−13˚s51291100 0.0 1017335